Time,TemperatureF,DewpointF,PressureIn,WindDirection,WindDirectionDegrees,WindSpeedMPH,WindSpeedGustMPH,Humidity,HourlyPrecipIn,Conditions,Clouds,dailyrainin,SoftwareType,DateUTC
2013-08-06 00:01:00,67.3,65.2,30.08,West,274,0.0,0.0,93,0.00,,---,0.00,VWS V14.01,2013-08-06 04:01:00,
2013-08-06 00:06:00,67.3,65.2,30.08,West,274,0.0,0.0,93,0.00,,---,0.00,VWS V14.01,2013-08-06 04:06:00,
2013-08-06 00:11:00,67.3,65.2,30.08,West,274,0.0,0.0,93,0.00,,---,0.00,VWS V14.01,2013-08-06 04:11:00,
2013-08-06 00:16:00,67.3,65.2,30.08,West,274,0.0,0.0,93,0.00,,---,0.00,VWS V14.01,2013-08-06 04:16:00,
2013-08-06 00:21:00,67.2,65.1,30.08,West,274,0.0,0.0,93,0.00,,---,0.00,VWS V14.01,2013-08-06 04:21:00,
2013-08-06 00:26:00,67.3,65.2,30.08,West,274,0.0,0.0,93,0.00,,---,0.00,VWS V14.01,2013-08-06 04:26:00,
2013-08-06 00:31:00,67.3,65.2,30.08,West,274,0.0,0.0,93,0.00,,---,0.00,VWS V14.01,2013-08-06 04:31:00,
2013-08-06 00:36:00,67.4,65.0,30.07,West,274,0.0,0.0,92,0.00,,---,0.00,VWS V14.01,2013-08-06 04:36:00,
2013-08-06 00:41:00,67.4,65.0,30.07,West,274,0.0,0.0,92,0.00,,---,0.00,VWS V14.01,2013-08-06 04:41:00,
2013-08-06 00:46:00,67.4,65.3,30.08,West,274,0.0,0.0,93,0.00,,---,0.00,VWS V14.01,2013-08-06 04:46:00,
2013-08-06 00:51:00,67.4,65.3,30.07,West,274,0.0,0.0,93,0.00,,---,0.00,VWS V14.01,2013-08-06 04:51:00,
2013-08-06 00:56:00,67.3,65.2,30.07,West,274,0.0,0.0,93,0.00,,---,0.00,VWS V14.01,2013-08-06 04:56:00,
2013-08-06 01:01:00,67.3,65.2,30.08,West,274,0.0,0.0,93,0.00,,---,0.00,VWS V14.01,2013-08-06 05:01:00,
2013-08-06 01:06:00,67.2,64.8,30.08,West,274,0.0,0.0,92,0.00,,---,0.00,VWS V14.01,2013-08-06 05:06:00,
2013-08-06 01:11:00,67.3,64.9,30.07,West,274,0.0,0.0,92,0.00,,---,0.00,VWS V14.01,2013-08-06 05:11:00,
2013-08-06 01:16:00,67.3,64.6,30.07,West,274,0.0,0.0,91,0.00,,---,0.00,VWS V14.01,2013-08-06 05:16:00,
2013-08-06 01:21:00,67.4,64.4,30.06,West,275,0.0,1.0,90,0.00,,---,0.00,VWS V14.01,2013-08-06 05:21:00,
2013-08-06 01:26:00,67.5,64.5,30.06,West,275,0.0,1.0,90,0.00,,---,0.00,VWS V14.01,2013-08-06 05:26:00,
2013-08-06 01:31:00,67.5,64.5,30.06,West,275,0.0,0.0,90,0.00,,---,0.00,VWS V14.01,2013-08-06 05:31:00,
2013-08-06 01:36:00,67.5,64.5,30.06,West,275,0.0,1.0,90,0.00,,---,0.00,VWS V14.01,2013-08-06 05:36:00,
2013-08-06 01:41:00,67.4,64.1,30.06,West,275,0.0,2.0,89,0.00,,---,0.00,VWS V14.01,2013-08-06 05:41:00,
2013-08-06 01:46:00,67.4,64.1,30.06,West,275,0.0,0.0,89,0.00,,---,0.00,VWS V14.01,2013-08-06 05:46:00,
2013-08-06 01:51:00,67.4,64.4,30.05,West,275,0.0,0.0,90,0.00,,---,0.00,VWS V14.01,2013-08-06 05:51:00,
2013-08-06 01:56:00,67.2,64.2,30.05,West,275,0.0,0.0,90,0.00,,---,0.00,VWS V14.01,2013-08-06 05:56:00,
2013-08-06 02:01:00,67.2,63.8,30.05,West,275,0.0,0.0,89,0.00,,---,0.00,VWS V14.01,2013-08-06 06:01:00,
2013-08-06 02:06:00,67.2,64.2,30.04,West,275,0.0,0.0,90,0.00,,---,0.00,VWS V14.01,2013-08-06 06:06:00,
2013-08-06 02:11:00,67.1,63.8,30.04,West,275,0.0,0.0,89,0.00,,---,0.00,VWS V14.01,2013-08-06 06:11:00,
2013-08-06 02:16:00,67.1,63.8,30.05,West,275,0.0,0.0,89,0.00,,---,0.00,VWS V14.01,2013-08-06 06:16:00,
2013-08-06 02:21:00,67.2,63.8,30.05,West,275,0.0,0.0,89,0.00,,---,0.00,VWS V14.01,2013-08-06 06:21:00,
2013-08-06 02:26:00,67.3,64.3,30.05,West,275,0.0,0.0,90,0.00,,---,0.00,VWS V14.01,2013-08-06 06:26:00,
2013-08-06 02:31:00,67.2,64.2,30.05,West,275,0.0,0.0,90,0.00,,---,0.00,VWS V14.01,2013-08-06 06:31:00,
2013-08-06 02:36:00,67.0,64.0,30.05,West,275,0.0,0.0,90,0.00,,---,0.00,VWS V14.01,2013-08-06 06:36:00,
2013-08-06 02:41:00,66.9,64.2,30.05,West,275,0.0,0.0,91,0.00,,---,0.00,VWS V14.01,2013-08-06 06:41:00,
2013-08-06 02:46:00,66.8,63.8,30.05,West,275,0.0,0.0,90,0.00,,---,0.00,VWS V14.01,2013-08-06 06:46:00,
2013-08-06 02:51:00,66.8,64.1,30.05,West,275,0.0,0.0,91,0.00,,---,0.00,VWS V14.01,2013-08-06 06:51:00,
2013-08-06 02:56:00,66.7,64.0,30.05,West,275,0.0,0.0,91,0.00,,---,0.00,VWS V14.01,2013-08-06 06:56:00,
2013-08-06 03:01:00,66.7,64.0,30.04,West,275,0.0,0.0,91,0.00,,---,0.00,VWS V14.01,2013-08-06 07:01:00,
2013-08-06 03:06:00,66.7,64.0,30.04,West,275,0.0,0.0,91,0.00,,---,0.00,VWS V14.01,2013-08-06 07:06:00,
2013-08-06 03:11:00,66.7,64.3,30.04,West,275,0.0,0.0,92,0.00,,---,0.00,VWS V14.01,2013-08-06 07:11:00,
2013-08-06 03:16:00,66.7,64.0,30.04,West,275,0.0,0.0,91,0.00,,---,0.00,VWS V14.01,2013-08-06 07:16:00,
2013-08-06 03:21:00,66.7,64.3,30.04,West,275,0.0,0.0,92,0.00,,---,0.00,VWS V14.01,2013-08-06 07:21:00,
2013-08-06 03:26:00,66.6,63.6,30.03,West,275,0.0,0.0,90,0.00,,---,0.00,VWS V14.01,2013-08-06 07:26:00,
2013-08-06 03:31:00,66.7,64.3,30.03,West,275,0.0,0.0,92,0.00,,---,0.00,VWS V14.01,2013-08-06 07:31:00,
2013-08-06 03:36:00,66.6,63.6,30.04,West,275,0.0,0.0,90,0.00,,---,0.00,VWS V14.01,2013-08-06 07:36:00,
2013-08-06 03:41:00,66.6,64.2,30.03,West,275,0.0,0.0,92,0.00,,---,0.00,VWS V14.01,2013-08-06 07:41:00,
2013-08-06 03:46:00,66.6,64.2,30.03,West,275,0.0,0.0,92,0.00,,---,0.00,VWS V14.01,2013-08-06 07:46:00,
2013-08-06 03:51:00,66.5,63.8,30.03,West,275,0.0,0.0,91,0.00,,---,0.00,VWS V14.01,2013-08-06 07:51:00,
2013-08-06 03:56:00,66.6,63.6,30.02,West,275,0.0,0.0,90,0.00,,---,0.00,VWS V14.01,2013-08-06 07:56:00,
2013-08-06 04:01:00,66.7,63.7,30.02,West,275,0.0,0.0,90,0.00,,---,0.00,VWS V14.01,2013-08-06 08:01:00,
2013-08-06 04:06:00,66.8,63.8,30.02,West,275,0.0,0.0,90,0.00,,---,0.00,VWS V14.01,2013-08-06 08:06:00,
2013-08-06 04:11:00,66.7,63.7,30.03,West,275,0.0,0.0,90,0.00,,---,0.00,VWS V14.01,2013-08-06 08:11:00,
2013-08-06 04:16:00,66.5,63.8,30.03,West,275,0.0,0.0,91,0.00,,---,0.00,VWS V14.01,2013-08-06 08:16:00,
2013-08-06 04:21:00,66.4,63.7,30.03,West,275,0.0,0.0,91,0.00,,---,0.00,VWS V14.01,2013-08-06 08:21:00,
2013-08-06 04:26:00,66.3,63.6,30.03,West,275,0.0,0.0,91,0.00,,---,0.00,VWS V14.01,2013-08-06 08:26:00,
2013-08-06 04:31:00,66.3,63.6,30.03,West,275,0.0,0.0,91,0.00,,---,0.00,VWS V14.01,2013-08-06 08:31:00,
2013-08-06 04:36:00,66.3,63.9,30.03,West,275,0.0,0.0,92,0.00,,---,0.00,VWS V14.01,2013-08-06 08:36:00,
2013-08-06 04:41:00,66.3,63.9,30.03,West,275,0.0,0.0,92,0.00,,---,0.00,VWS V14.01,2013-08-06 08:41:00,
2013-08-06 04:46:00,66.3,63.9,30.03,West,275,0.0,0.0,92,0.00,,---,0.00,VWS V14.01,2013-08-06 08:46:00,
2013-08-06 04:51:00,66.2,63.8,30.03,West,275,0.0,0.0,92,0.00,,---,0.00,VWS V14.01,2013-08-06 08:51:00,
2013-08-06 04:56:00,66.2,64.1,30.03,West,275,0.0,0.0,93,0.00,,---,0.00,VWS V14.01,2013-08-06 08:56:00,
2013-08-06 05:01:00,66.2,63.8,30.03,West,275,0.0,0.0,92,0.00,,---,0.00,VWS V14.01,2013-08-06 09:01:00,
2013-08-06 05:06:00,66.2,64.1,30.03,West,275,0.0,0.0,93,0.00,,---,0.00,VWS V14.01,2013-08-06 09:06:00,
2013-08-06 05:11:00,66.1,64.0,30.04,West,275,0.0,0.0,93,0.00,,---,0.00,VWS V14.01,2013-08-06 09:11:00,
2013-08-06 05:16:00,66.1,64.0,30.04,West,275,0.0,0.0,93,0.00,,---,0.00,VWS V14.01,2013-08-06 09:16:00,
2013-08-06 05:21:00,66.0,63.9,30.04,West,275,0.0,0.0,93,0.00,,---,0.00,VWS V14.01,2013-08-06 09:21:00,
2013-08-06 05:26:00,66.0,63.9,30.04,West,275,0.0,0.0,93,0.00,,---,0.00,VWS V14.01,2013-08-06 09:26:00,
2013-08-06 05:31:00,66.0,63.9,30.04,West,275,0.0,0.0,93,0.00,,---,0.00,VWS V14.01,2013-08-06 09:31:00,
2013-08-06 05:36:00,65.9,63.8,30.04,West,275,0.0,0.0,93,0.00,,---,0.00,VWS V14.01,2013-08-06 09:36:00,
2013-08-06 05:41:00,65.9,63.8,30.04,West,275,0.0,0.0,93,0.00,,---,0.00,VWS V14.01,2013-08-06 09:41:00,
2013-08-06 05:46:00,65.8,63.7,30.04,West,275,0.0,0.0,93,0.00,,---,0.00,VWS V14.01,2013-08-06 09:46:00,
2013-08-06 05:51:00,65.8,64.0,30.04,West,275,0.0,0.0,94,0.00,,---,0.00,VWS V14.01,2013-08-06 09:51:00,
2013-08-06 05:56:00,65.8,64.0,30.04,West,275,0.0,0.0,94,0.00,,---,0.00,VWS V14.01,2013-08-06 09:56:00,
2013-08-06 06:01:00,65.8,64.0,30.04,West,275,0.0,0.0,94,0.00,,---,0.00,VWS V14.01,2013-08-06 10:01:00,
2013-08-06 06:06:00,65.7,63.6,30.04,West,275,0.0,0.0,93,0.00,,---,0.00,VWS V14.01,2013-08-06 10:06:00,
2013-08-06 06:11:00,65.6,63.8,30.04,West,275,0.0,0.0,94,0.00,,---,0.00,VWS V14.01,2013-08-06 10:11:00,
2013-08-06 06:16:00,65.5,63.7,30.04,West,275,0.0,0.0,94,0.00,,---,0.00,VWS V14.01,2013-08-06 10:16:00,
2013-08-06 06:21:00,65.4,63.6,30.03,West,275,0.0,0.0,94,0.00,,---,0.00,VWS V14.01,2013-08-06 10:21:00,
2013-08-06 06:26:00,65.2,63.4,30.03,West,275,0.0,0.0,94,0.00,,---,0.00,VWS V14.01,2013-08-06 10:26:00,
2013-08-06 06:31:00,65.2,63.4,30.03,West,275,0.0,0.0,94,0.00,,---,0.00,VWS V14.01,2013-08-06 10:31:00,
2013-08-06 06:36:00,65.1,63.3,30.04,West,275,0.0,0.0,94,0.00,,---,0.00,VWS V14.01,2013-08-06 10:36:00,
2013-08-06 06:41:00,64.9,63.1,30.04,West,275,0.0,0.0,94,0.00,,---,0.00,VWS V14.01,2013-08-06 10:41:00,
2013-08-06 06:46:00,64.9,63.4,30.04,West,275,0.0,0.0,95,0.00,,---,0.00,VWS V14.01,2013-08-06 10:46:00,
2013-08-06 06:51:00,64.9,63.4,30.04,West,275,0.0,0.0,95,0.00,,---,0.00,VWS V14.01,2013-08-06 10:51:00,
2013-08-06 06:56:00,64.9,63.4,30.04,West,275,0.0,0.0,95,0.00,,---,0.00,VWS V14.01,2013-08-06 10:56:00,
2013-08-06 07:01:00,64.9,63.4,30.05,West,275,0.0,0.0,95,0.00,,---,0.00,VWS V14.01,2013-08-06 11:01:00,
2013-08-06 07:06:00,64.9,63.4,30.05,West,275,0.0,0.0,95,0.00,,---,0.00,VWS V14.01,2013-08-06 11:06:00,
2013-08-06 07:11:00,65.0,63.5,30.05,West,275,0.0,0.0,95,0.00,,---,0.00,VWS V14.01,2013-08-06 11:11:00,
2013-08-06 07:16:00,65.1,63.6,30.05,West,275,0.0,0.0,95,0.00,,---,0.00,VWS V14.01,2013-08-06 11:16:00,
2013-08-06 07:21:00,65.2,63.7,30.05,West,275,0.0,0.0,95,0.00,,---,0.00,VWS V14.01,2013-08-06 11:21:00,
2013-08-06 07:26:00,65.2,63.7,30.06,West,275,0.0,0.0,95,0.00,,---,0.00,VWS V14.01,2013-08-06 11:26:00,
2013-08-06 07:31:00,65.3,63.8,30.06,West,275,0.0,0.0,95,0.00,,---,0.00,VWS V14.01,2013-08-06 11:31:00,
2013-08-06 07:36:00,65.5,64.0,30.06,West,275,0.0,0.0,95,0.00,,---,0.00,VWS V14.01,2013-08-06 11:36:00,
2013-08-06 07:41:00,65.6,64.1,30.06,West,275,0.0,0.0,95,0.00,,---,0.00,VWS V14.01,2013-08-06 11:41:00,
2013-08-06 07:46:00,65.8,64.3,30.06,West,275,0.0,0.0,95,0.00,,---,0.00,VWS V14.01,2013-08-06 11:46:00,
2013-08-06 07:51:00,66.1,64.6,30.06,West,275,0.0,0.0,95,0.00,,---,0.00,VWS V14.01,2013-08-06 11:51:00,
2013-08-06 07:56:00,66.2,64.4,30.06,West,275,0.0,0.0,94,0.00,,---,0.00,VWS V14.01,2013-08-06 11:56:00,
2013-08-06 08:01:00,66.4,64.6,30.06,West,275,0.0,0.0,94,0.00,,---,0.00,VWS V14.01,2013-08-06 12:01:00,
2013-08-06 08:06:00,66.6,64.8,30.06,West,275,0.0,0.0,94,0.00,,---,0.00,VWS V14.01,2013-08-06 12:06:00,
2013-08-06 08:11:00,66.8,65.0,30.06,West,275,0.0,0.0,94,0.00,,---,0.00,VWS V14.01,2013-08-06 12:11:00,
2013-08-06 08:16:00,67.0,64.9,30.07,West,275,0.0,0.0,93,0.00,,---,0.00,VWS V14.01,2013-08-06 12:16:00,
2013-08-06 08:21:00,67.2,65.1,30.07,West,275,0.0,0.0,93,0.00,,---,0.00,VWS V14.01,2013-08-06 12:21:00,
2013-08-06 08:26:00,67.4,65.3,30.06,West,275,0.0,0.0,93,0.00,,---,0.00,VWS V14.01,2013-08-06 12:26:00,
2013-08-06 08:31:00,67.7,65.3,30.07,West,275,0.0,0.0,92,0.00,,---,0.00,VWS V14.01,2013-08-06 12:31:00,
2013-08-06 08:36:00,67.9,65.5,30.07,West,275,0.0,0.0,92,0.00,,---,0.00,VWS V14.01,2013-08-06 12:36:00,
2013-08-06 08:41:00,68.0,65.6,30.07,West,276,0.0,0.0,92,0.00,,---,0.00,VWS V14.01,2013-08-06 12:41:00,
2013-08-06 08:46:00,68.1,65.4,30.07,West,276,0.0,0.0,91,0.00,,---,0.00,VWS V14.01,2013-08-06 12:46:00,
2013-08-06 08:51:00,68.2,65.5,30.07,West,276,0.0,0.0,91,0.00,,---,0.00,VWS V14.01,2013-08-06 12:51:00,
2013-08-06 08:56:00,68.3,65.3,30.07,West,276,0.0,0.0,90,0.00,,---,0.00,VWS V14.01,2013-08-06 12:56:00,
2013-08-06 09:01:00,68.4,65.4,30.07,West,276,0.0,0.0,90,0.00,,---,0.00,VWS V14.01,2013-08-06 13:01:00,
2013-08-06 09:06:00,68.6,65.6,30.07,West,276,0.0,0.0,90,0.00,,---,0.00,VWS V14.01,2013-08-06 13:06:00,
2013-08-06 09:11:00,68.7,65.7,30.07,West,276,0.0,0.0,90,0.00,,---,0.00,VWS V14.01,2013-08-06 13:11:00,
2013-08-06 09:16:00,68.8,65.8,30.07,West,276,0.0,0.0,90,0.00,,---,0.00,VWS V14.01,2013-08-06 13:16:00,
2013-08-06 09:21:00,68.8,65.8,30.07,West,276,0.0,0.0,90,0.00,,---,0.00,VWS V14.01,2013-08-06 13:21:00,
2013-08-06 09:26:00,69.0,65.9,30.07,West,276,0.0,0.0,90,0.00,,---,0.00,VWS V14.01,2013-08-06 13:26:00,
2013-08-06 09:31:00,69.2,66.2,30.07,West,276,0.0,0.0,90,0.00,,---,0.00,VWS V14.01,2013-08-06 13:31:00,
2013-08-06 09:36:00,69.4,66.7,30.07,West,276,0.0,0.0,91,0.00,,---,0.00,VWS V14.01,2013-08-06 13:36:00,
2013-08-06 09:41:00,69.7,66.6,30.07,West,276,0.0,0.0,90,0.00,,---,0.00,VWS V14.01,2013-08-06 13:41:00,
2013-08-06 09:46:00,69.7,66.6,30.07,West,276,0.0,0.0,90,0.00,,---,0.00,VWS V14.01,2013-08-06 13:46:00,
2013-08-06 09:51:00,69.9,66.8,30.07,West,276,0.0,0.0,90,0.00,,---,0.00,VWS V14.01,2013-08-06 13:51:00,
2013-08-06 09:56:00,69.9,66.5,30.07,West,276,0.0,1.0,89,0.00,,---,0.00,VWS V14.01,2013-08-06 13:56:00,
2013-08-06 10:01:00,69.7,66.3,30.08,West,276,0.0,0.0,89,0.00,,---,0.00,VWS V14.01,2013-08-06 14:01:00,
2013-08-06 10:06:00,69.8,66.7,30.07,West,276,0.0,0.0,90,0.00,,---,0.00,VWS V14.01,2013-08-06 14:06:00,
2013-08-06 10:11:00,69.9,67.2,30.07,West,276,0.0,0.0,91,0.00,,---,0.00,VWS V14.01,2013-08-06 14:11:00,
2013-08-06 10:16:00,70.2,67.1,30.07,West,276,0.0,0.0,90,0.00,,---,0.00,VWS V14.01,2013-08-06 14:16:00,
2013-08-06 10:21:00,70.4,67.3,30.07,West,276,0.0,0.0,90,0.00,,---,0.00,VWS V14.01,2013-08-06 14:21:00,
2013-08-06 10:26:00,70.8,67.4,30.07,West,276,0.0,0.0,89,0.00,,---,0.00,VWS V14.01,2013-08-06 14:26:00,
2013-08-06 10:31:00,71.1,67.7,30.06,West,276,0.0,0.0,89,0.00,,---,0.00,VWS V14.01,2013-08-06 14:31:00,
2013-08-06 10:36:00,71.3,67.9,30.07,West,276,0.0,0.0,89,0.00,,---,0.00,VWS V14.01,2013-08-06 14:36:00,
2013-08-06 10:41:00,71.5,68.1,30.07,ENE,77,0.0,0.0,89,0.00,,---,0.00,VWS V14.01,2013-08-06 14:41:00,
2013-08-06 10:46:00,71.8,68.4,30.07,ENE,76,0.0,0.0,89,0.00,,---,0.00,VWS V14.01,2013-08-06 14:46:00,
2013-08-06 10:51:00,71.9,68.5,30.07,ENE,76,0.0,0.0,89,0.00,,---,0.00,VWS V14.01,2013-08-06 14:51:00,
2013-08-06 10:55:00,72.0,68.3,30.07,ENE,76,0.0,0.0,88,0.00,,---,0.00,VWS V14.01,2013-08-06 14:55:00,
2013-08-06 11:00:00,72.3,68.6,30.07,NNW,340,0.0,2.0,88,0.00,,---,0.00,VWS V14.01,2013-08-06 15:00:00,
2013-08-06 11:05:00,72.7,68.9,30.08,ENE,61,0.0,2.0,88,0.00,,---,0.00,VWS V14.01,2013-08-06 15:05:00,
2013-08-06 11:10:00,73.3,68.9,30.07,ESE,118,0.0,3.0,86,0.00,,---,0.00,VWS V14.01,2013-08-06 15:10:00,
2013-08-06 11:15:00,74.1,69.0,30.07,South,174,1.0,2.0,84,0.00,,---,0.00,VWS V14.01,2013-08-06 15:15:00,
2013-08-06 11:20:00,74.7,69.9,30.07,ESE,111,0.0,3.0,85,0.00,,---,0.00,VWS V14.01,2013-08-06 15:20:00,
2013-08-06 11:25:00,75.3,69.4,30.07,SE,129,0.0,3.0,82,0.00,,---,0.00,VWS V14.01,2013-08-06 15:25:00,
2013-08-06 11:30:00,76.1,70.6,30.07,SE,129,5.0,5.0,83,0.00,,---,0.00,VWS V14.01,2013-08-06 15:30:00,
2013-08-06 11:35:00,76.4,70.1,30.06,South,185,0.0,5.0,81,0.00,,---,0.00,VWS V14.01,2013-08-06 15:35:00,
2013-08-06 11:40:00,76.6,69.6,30.06,SE,145,0.0,6.0,79,0.00,,---,0.00,VWS V14.01,2013-08-06 15:40:00,
2013-08-06 11:45:00,76.8,70.5,30.06,ESE,114,2.0,2.0,81,0.00,,---,0.00,VWS V14.01,2013-08-06 15:45:00,
2013-08-06 11:50:00,77.1,69.7,30.06,ESE,110,1.0,5.0,78,0.00,,---,0.00,VWS V14.01,2013-08-06 15:50:00,
2013-08-06 11:55:00,77.3,70.3,30.06,SSE,157,1.0,5.0,79,0.00,,---,0.00,VWS V14.01,2013-08-06 15:55:00,
2013-08-06 12:00:00,77.4,70.0,30.06,South,184,2.0,4.0,78,0.00,,---,0.00,VWS V14.01,2013-08-06 16:00:00,
2013-08-06 12:05:00,77.9,71.2,30.06,East,93,0.0,5.0,80,0.00,,---,0.00,VWS V14.01,2013-08-06 16:05:00,
2013-08-06 12:10:00,78.4,71.0,30.06,East,93,0.0,5.0,78,0.00,,---,0.00,VWS V14.01,2013-08-06 16:10:00,
2013-08-06 12:15:00,78.5,70.3,30.06,SE,142,3.0,3.0,76,0.00,,---,0.00,VWS V14.01,2013-08-06 16:15:00,
2013-08-06 12:20:00,78.5,69.5,30.06,SE,137,0.0,3.0,74,0.00,,---,0.00,VWS V14.01,2013-08-06 16:20:00,
2013-08-06 12:25:00,78.7,69.7,30.06,South,184,1.0,3.0,74,0.00,,---,0.00,VWS V14.01,2013-08-06 16:25:00,
2013-08-06 12:30:00,78.8,69.8,30.06,ENE,72,0.0,4.0,74,0.00,,---,0.00,VWS V14.01,2013-08-06 16:30:00,
2013-08-06 12:35:00,79.0,70.4,30.06,SSE,165,3.0,6.0,75,0.00,,---,0.00,VWS V14.01,2013-08-06 16:35:00,
2013-08-06 12:40:00,79.4,70.4,30.06,SE,139,3.0,6.0,74,0.00,,---,0.00,VWS V14.01,2013-08-06 16:40:00,
2013-08-06 12:45:00,79.9,72.1,30.05,SSE,154,2.0,7.0,77,0.00,,---,0.00,VWS V14.01,2013-08-06 16:45:00,
2013-08-06 12:50:00,80.2,71.2,30.05,West,273,0.0,7.0,74,0.00,,---,0.00,VWS V14.01,2013-08-06 16:50:00,
2013-08-06 12:55:00,80.4,71.4,30.05,ESE,121,2.0,7.0,74,0.00,,---,0.00,VWS V14.01,2013-08-06 16:55:00,
2013-08-06 13:00:00,80.3,70.9,30.05,SE,144,0.0,0.0,73,0.00,,---,0.00,VWS V14.01,2013-08-06 17:00:00,
2013-08-06 13:05:00,80.2,70.8,30.05,SSW,212,0.0,5.0,73,0.00,,---,0.00,VWS V14.01,2013-08-06 17:05:00,
2013-08-06 13:10:00,80.2,70.4,30.05,ESE,109,0.0,5.0,72,0.00,,---,0.00,VWS V14.01,2013-08-06 17:10:00,
2013-08-06 13:15:00,80.2,70.8,30.05,SSE,158,0.0,1.0,73,0.00,,---,0.00,VWS V14.01,2013-08-06 17:15:00,
2013-08-06 13:20:00,80.2,69.9,30.06,SSW,193,0.0,5.0,71,0.00,,---,0.00,VWS V14.01,2013-08-06 17:20:00,
2013-08-06 13:25:00,79.9,69.7,30.05,SSW,193,0.0,5.0,71,0.00,,---,0.00,VWS V14.01,2013-08-06 17:25:00,
2013-08-06 13:27:00,79.8,69.6,30.05,SSW,193,0.0,5.0,71,0.00,,---,0.00,VWS V14.01,2013-08-06 17:27:00,
2013-08-06 13:32:00,79.7,70.3,30.06,SSE,159,2.0,3.0,73,0.00,,---,0.00,VWS V14.01,2013-08-06 17:32:00,
2013-08-06 13:37:00,79.6,70.2,30.05,SE,137,2.0,3.0,73,0.00,,---,0.00,VWS V14.01,2013-08-06 17:37:00,
2013-08-06 13:42:00,79.6,70.2,30.05,SSE,161,1.0,5.0,73,0.00,,---,0.00,VWS V14.01,2013-08-06 17:42:00,
2013-08-06 13:47:00,79.9,70.1,30.05,South,189,2.0,3.0,72,0.00,,---,0.00,VWS V14.01,2013-08-06 17:47:00,
2013-08-06 13:51:00,80.1,70.7,30.05,SE,143,2.0,6.0,73,0.00,,---,0.00,VWS V14.01,2013-08-06 17:51:00,
2013-08-06 13:56:00,80.5,70.7,30.05,SE,144,3.0,6.0,72,0.00,,---,0.00,VWS V14.01,2013-08-06 17:56:00,
2013-08-06 14:01:00,80.4,70.1,30.05,SE,130,1.0,3.0,71,0.00,,---,0.00,VWS V14.01,2013-08-06 18:01:00,
2013-08-06 14:06:00,80.0,70.2,30.05,South,179,2.0,3.0,72,0.00,,---,0.00,VWS V14.01,2013-08-06 18:06:00,
2013-08-06 14:11:00,79.4,69.6,30.05,South,185,2.0,5.0,72,0.00,,---,0.00,VWS V14.01,2013-08-06 18:11:00,
2013-08-06 14:16:00,78.8,69.4,30.05,South,175,2.0,3.0,73,0.00,,---,0.00,VWS V14.01,2013-08-06 18:16:00,
2013-08-06 14:21:00,78.6,70.0,30.05,SSW,196,1.0,5.0,75,0.00,,---,0.00,VWS V14.01,2013-08-06 18:21:00,
2013-08-06 14:26:00,79.0,70.4,30.05,SE,125,3.0,5.0,75,0.00,,---,0.00,VWS V14.01,2013-08-06 18:26:00,
2013-08-06 14:31:00,79.4,70.0,30.04,SE,129,5.0,6.0,73,0.00,,---,0.00,VWS V14.01,2013-08-06 18:31:00,
2013-08-06 14:36:00,79.4,70.4,30.04,SE,146,0.0,6.0,74,0.00,,---,0.00,VWS V14.01,2013-08-06 18:36:00,
2013-08-06 14:41:00,79.3,69.9,30.04,East,97,0.0,6.0,73,0.00,,---,0.00,VWS V14.01,2013-08-06 18:41:00,
2013-08-06 14:46:00,79.2,69.4,30.04,South,174,3.0,9.0,72,0.00,,---,0.00,VWS V14.01,2013-08-06 18:46:00,
2013-08-06 14:51:00,79.1,69.3,30.04,SSW,193,1.0,9.0,72,0.00,,---,0.00,VWS V14.01,2013-08-06 18:51:00,
2013-08-06 14:56:00,79.1,70.1,30.04,ESE,120,2.0,9.0,74,0.00,,---,0.00,VWS V14.01,2013-08-06 18:56:00,
2013-08-06 15:01:00,79.0,70.0,30.04,SSW,208,2.0,5.0,74,0.00,,---,0.00,VWS V14.01,2013-08-06 19:01:00,
2013-08-06 15:02:00,79.0,70.0,30.04,South,186,1.0,5.0,74,0.00,,---,0.00,VWS V14.01,2013-08-06 19:02:00,
2013-08-06 15:07:00,78.9,70.3,30.04,South,187,1.0,5.0,75,0.00,,---,0.00,VWS V14.01,2013-08-06 19:07:00,
2013-08-06 15:12:00,79.0,70.4,30.04,SE,138,1.0,5.0,75,0.00,,---,0.00,VWS V14.01,2013-08-06 19:12:00,
2013-08-06 15:17:00,79.4,70.4,30.03,SE,140,1.0,4.0,74,0.00,,---,0.00,VWS V14.01,2013-08-06 19:17:00,
2013-08-06 15:21:00,79.9,71.3,30.03,SSE,150,2.0,4.0,75,0.00,,---,0.00,VWS V14.01,2013-08-06 19:21:00,
2013-08-06 15:26:00,80.3,69.6,30.03,SSW,212,0.0,5.0,70,0.00,,---,0.00,VWS V14.01,2013-08-06 19:26:00,
2013-08-06 15:31:00,80.6,69.9,30.03,SE,127,2.0,4.0,70,0.00,,---,0.00,VWS V14.01,2013-08-06 19:31:00,
2013-08-06 15:36:00,80.8,70.5,30.03,SSE,151,2.0,6.0,71,0.00,,---,0.00,VWS V14.01,2013-08-06 19:36:00,
2013-08-06 15:41:00,81.0,70.7,30.03,SSE,148,5.0,6.0,71,0.00,,---,0.00,VWS V14.01,2013-08-06 19:41:00,
2013-08-06 15:46:00,81.4,70.3,30.03,WNW,282,1.0,8.0,69,0.00,,---,0.00,VWS V14.01,2013-08-06 19:46:00,
2013-08-06 15:51:00,81.4,69.8,30.03,SSE,164,0.0,8.0,68,0.00,,---,0.00,VWS V14.01,2013-08-06 19:51:00,
2013-08-06 15:56:00,81.2,69.2,30.03,SSW,194,1.0,8.0,67,0.00,,---,0.00,VWS V14.01,2013-08-06 19:56:00,
2013-08-06 16:01:00,81.5,70.4,30.03,SSE,149,0.0,3.0,69,0.00,,---,0.00,VWS V14.01,2013-08-06 20:01:00,
2013-08-06 16:06:00,81.8,70.2,30.03,South,185,1.0,6.0,68,0.00,,---,0.00,VWS V14.01,2013-08-06 20:06:00,
2013-08-06 16:11:00,81.6,70.4,30.03,SSW,193,1.0,6.0,69,0.00,,---,0.00,VWS V14.01,2013-08-06 20:11:00,
2013-08-06 16:16:00,81.3,68.9,30.03,SSE,163,0.0,2.0,66,0.00,,---,0.00,VWS V14.01,2013-08-06 20:16:00,
2013-08-06 16:21:00,81.2,69.2,30.03,South,171,1.0,2.0,67,0.00,,---,0.00,VWS V14.01,2013-08-06 20:21:00,
2013-08-06 16:26:00,81.5,69.9,30.03,SSE,167,2.0,4.0,68,0.00,,---,0.00,VWS V14.01,2013-08-06 20:26:00,
2013-08-06 16:31:00,81.6,69.6,30.03,South,181,2.0,6.0,67,0.00,,---,0.00,VWS V14.01,2013-08-06 20:31:00,
2013-08-06 16:32:00,81.6,69.6,30.03,South,181,2.0,6.0,67,0.00,,---,0.00,VWS V14.01,2013-08-06 20:32:00,
2013-08-06 16:37:00,81.4,70.3,30.03,South,179,0.0,6.0,69,0.00,,---,0.00,VWS V14.01,2013-08-06 20:37:00,
2013-08-06 16:42:00,81.2,70.1,30.03,South,173,2.0,6.0,69,0.00,,---,0.00,VWS V14.01,2013-08-06 20:42:00,
2013-08-06 16:47:00,81.0,70.3,30.03,SSE,150,2.0,3.0,70,0.00,,---,0.00,VWS V14.01,2013-08-06 20:47:00,
2013-08-06 16:52:00,80.6,70.3,30.02,SSE,155,2.0,3.0,71,0.00,,---,0.00,VWS V14.01,2013-08-06 20:52:00,
2013-08-06 16:57:00,80.4,70.1,30.02,SSE,166,1.0,4.0,71,0.00,,---,0.00,VWS V14.01,2013-08-06 20:57:00,
2013-08-06 17:02:00,80.3,70.9,30.03,ESE,115,3.0,3.0,73,0.00,,---,0.00,VWS V14.01,2013-08-06 21:02:00,
2013-08-06 17:07:00,80.2,70.4,30.03,SSE,150,1.0,3.0,72,0.00,,---,0.00,VWS V14.01,2013-08-06 21:07:00,
2013-08-06 17:12:00,80.2,70.4,30.03,South,184,1.0,6.0,72,0.00,,---,0.00,VWS V14.01,2013-08-06 21:12:00,
2013-08-06 17:17:00,80.1,70.3,30.03,South,175,2.0,2.0,72,0.00,,---,0.00,VWS V14.01,2013-08-06 21:17:00,
2013-08-06 17:22:00,80.0,70.6,30.03,SE,137,0.0,3.0,73,0.00,,---,0.00,VWS V14.01,2013-08-06 21:22:00,
2013-08-06 17:27:00,79.8,70.0,30.02,South,175,2.0,6.0,72,0.00,,---,0.00,VWS V14.01,2013-08-06 21:27:00,
2013-08-06 17:32:00,79.7,70.3,30.03,SSW,201,2.0,3.0,73,0.00,,---,0.00,VWS V14.01,2013-08-06 21:32:00,
2013-08-06 17:37:00,79.5,70.5,30.02,SSE,167,5.0,7.0,74,0.00,,---,0.00,VWS V14.01,2013-08-06 21:37:00,
2013-08-06 17:42:00,79.2,71.0,30.02,SSE,151,3.0,7.0,76,0.00,,---,0.00,VWS V14.01,2013-08-06 21:42:00,
2013-08-06 17:47:00,78.9,70.7,30.03,South,183,0.0,3.0,76,0.00,,---,0.00,VWS V14.01,2013-08-06 21:47:00,
2013-08-06 17:51:00,78.7,71.3,30.03,SE,127,0.0,3.0,78,0.00,,---,0.00,VWS V14.01,2013-08-06 21:51:00,
2013-08-06 17:56:00,78.7,70.9,30.03,SSW,199,1.0,3.0,77,0.00,,---,0.00,VWS V14.01,2013-08-06 21:56:00,
2013-08-06 18:01:00,78.6,70.8,30.03,WSW,246,0.0,6.0,77,0.00,,---,0.00,VWS V14.01,2013-08-06 22:01:00,
2013-08-06 18:06:00,78.4,70.2,30.03,East,98,1.0,6.0,76,0.00,,---,0.00,VWS V14.01,2013-08-06 22:06:00,
2013-08-06 18:11:00,78.2,70.0,30.03,South,188,0.0,6.0,76,0.00,,---,0.00,VWS V14.01,2013-08-06 22:11:00,
2013-08-06 18:16:00,78.0,70.2,30.03,South,175,3.0,3.0,77,0.00,,---,0.00,VWS V14.01,2013-08-06 22:16:00,
2013-08-06 18:21:00,77.8,70.0,30.03,SSW,196,0.0,3.0,77,0.00,,---,0.00,VWS V14.01,2013-08-06 22:21:00,
2013-08-06 18:26:00,77.7,70.7,30.03,South,175,0.0,3.0,79,0.00,,---,0.00,VWS V14.01,2013-08-06 22:26:00,
2013-08-06 18:31:00,77.7,70.7,30.03,South,173,0.0,2.0,79,0.00,,---,0.00,VWS V14.01,2013-08-06 22:31:00,
2013-08-06 18:36:00,77.6,70.6,30.04,South,181,0.0,3.0,79,0.00,,---,0.00,VWS V14.01,2013-08-06 22:36:00,
2013-08-06 18:41:00,77.5,70.8,30.04,SSE,159,0.0,3.0,80,0.00,,---,0.00,VWS V14.01,2013-08-06 22:41:00,
2013-08-06 18:46:00,77.2,70.9,30.04,SSE,162,0.0,0.0,81,0.00,,---,0.00,VWS V14.01,2013-08-06 22:46:00,
2013-08-06 18:51:00,77.0,71.1,30.04,SSE,162,0.0,0.0,82,0.00,,---,0.00,VWS V14.01,2013-08-06 22:51:00,
2013-08-06 18:56:00,76.7,70.8,30.04,East,93,0.0,0.0,82,0.00,,---,0.00,VWS V14.01,2013-08-06 22:56:00,
2013-08-06 19:01:00,76.5,71.3,30.04,SE,144,0.0,0.0,84,0.00,,---,0.00,VWS V14.01,2013-08-06 23:01:00,
2013-08-06 19:06:00,76.1,70.9,30.05,SSW,192,0.0,1.0,84,0.00,,---,0.00,VWS V14.01,2013-08-06 23:06:00,
2013-08-06 19:11:00,75.9,70.7,30.05,SSE,160,0.0,2.0,84,0.00,,---,0.00,VWS V14.01,2013-08-06 23:11:00,
2013-08-06 19:16:00,75.7,70.9,30.05,WNW,298,0.0,1.0,85,0.00,,---,0.00,VWS V14.01,2013-08-06 23:16:00,
2013-08-06 19:21:00,75.6,71.1,30.05,WNW,298,0.0,1.0,86,0.00,,---,0.00,VWS V14.01,2013-08-06 23:21:00,
2013-08-06 19:26:00,75.4,70.9,30.05,WNW,298,0.0,1.0,86,0.00,,---,0.00,VWS V14.01,2013-08-06 23:26:00,
2013-08-06 19:31:00,75.3,70.8,30.05,WNW,298,0.0,0.0,86,0.00,,---,0.00,VWS V14.01,2013-08-06 23:31:00,
2013-08-06 19:36:00,75.3,71.2,30.05,WNW,298,0.0,0.0,87,0.00,,---,0.00,VWS V14.01,2013-08-06 23:36:00,
2013-08-06 19:41:00,75.2,71.1,30.05,WNW,298,0.0,0.0,87,0.00,,---,0.00,VWS V14.01,2013-08-06 23:41:00,
2013-08-06 19:46:00,75.0,70.9,30.05,WNW,298,0.0,0.0,87,0.00,,---,0.00,VWS V14.01,2013-08-06 23:46:00,
2013-08-06 19:51:00,74.8,71.0,30.05,WNW,298,0.0,0.0,88,0.00,,---,0.00,VWS V14.01,2013-08-06 23:51:00,
2013-08-06 19:56:00,74.3,70.2,30.05,WNW,298,0.0,0.0,87,0.00,,---,0.00,VWS V14.01,2013-08-06 23:56:00,
2013-08-06 20:01:00,73.8,69.3,30.05,WNW,298,0.0,0.0,86,0.00,,---,0.00,VWS V14.01,2013-08-07 00:01:00,
2013-08-06 20:06:00,73.3,68.9,30.06,WNW,298,0.0,0.0,86,0.00,,---,0.00,VWS V14.01,2013-08-07 00:06:00,
2013-08-06 20:11:00,72.9,68.8,30.06,WNW,298,0.0,1.0,87,0.00,,---,0.00,VWS V14.01,2013-08-07 00:11:00,
2013-08-06 20:16:00,72.6,68.8,30.06,WNW,298,0.0,0.0,88,0.00,,---,0.00,VWS V14.01,2013-08-07 00:16:00,
2013-08-06 20:21:00,72.3,68.6,30.06,WNW,298,0.0,0.0,88,0.00,,---,0.00,VWS V14.01,2013-08-07 00:21:00,
2013-08-06 20:26:00,72.1,68.7,30.06,NW,312,0.0,1.0,89,0.00,,---,0.00,VWS V14.01,2013-08-07 00:26:00,
2013-08-06 20:31:00,71.9,68.8,30.06,NW,320,0.0,1.0,90,0.00,,---,0.00,VWS V14.01,2013-08-07 00:31:00,
2013-08-06 20:36:00,71.8,68.7,30.06,NW,320,0.0,1.0,90,0.00,,---,0.00,VWS V14.01,2013-08-07 00:36:00,
2013-08-06 20:41:00,71.7,68.6,30.06,NW,320,0.0,1.0,90,0.00,,---,0.00,VWS V14.01,2013-08-07 00:41:00,
2013-08-06 20:46:00,71.6,68.8,30.06,NW,320,0.0,1.0,91,0.00,,---,0.00,VWS V14.01,2013-08-07 00:46:00,
2013-08-06 20:51:00,71.5,68.7,30.06,NW,320,0.0,1.0,91,0.00,,---,0.00,VWS V14.01,2013-08-07 00:51:00,
2013-08-06 20:56:00,71.5,68.7,30.06,NW,320,0.0,1.0,91,0.00,,---,0.00,VWS V14.01,2013-08-07 00:56:00,
2013-08-06 21:02:00,71.4,68.6,30.06,NW,320,0.0,0.0,91,0.00,,---,0.00,VWS V14.01,2013-08-07 01:02:00,
2013-08-06 21:07:00,71.4,68.6,30.06,NW,320,0.0,0.0,91,0.00,,---,0.00,VWS V14.01,2013-08-07 01:07:00,
2013-08-06 21:12:00,71.4,69.0,30.07,NW,320,0.0,0.0,92,0.00,,---,0.00,VWS V14.01,2013-08-07 01:12:00,
2013-08-06 21:17:00,71.4,69.0,30.07,NW,320,0.0,0.0,92,0.00,,---,0.00,VWS V14.01,2013-08-07 01:17:00,
2013-08-06 21:22:00,71.4,69.0,30.07,NW,320,0.0,0.0,92,0.00,,---,0.00,VWS V14.01,2013-08-07 01:22:00,
2013-08-06 21:27:00,71.4,69.0,30.07,NW,320,0.0,0.0,92,0.00,,---,0.00,VWS V14.01,2013-08-07 01:27:00,
2013-08-06 21:32:00,71.4,69.0,30.07,NW,320,0.0,0.0,92,0.00,,---,0.00,VWS V14.01,2013-08-07 01:32:00,
2013-08-06 21:37:00,71.3,68.9,30.07,NW,320,0.0,0.0,92,0.00,,---,0.00,VWS V14.01,2013-08-07 01:37:00,
2013-08-06 21:42:00,71.3,68.9,30.07,NW,320,0.0,0.0,92,0.00,,---,0.00,VWS V14.01,2013-08-07 01:42:00,
2013-08-06 21:46:00,71.3,68.9,30.07,NW,320,0.0,0.0,92,0.00,,---,0.00,VWS V14.01,2013-08-07 01:46:00,
2013-08-06 21:51:00,71.3,68.9,30.07,NW,320,0.0,0.0,92,0.00,,---,0.00,VWS V14.01,2013-08-07 01:51:00,
2013-08-06 21:56:00,71.2,68.8,30.07,NW,320,0.0,0.0,92,0.00,,---,0.00,VWS V14.01,2013-08-07 01:56:00,
2013-08-06 22:01:00,71.2,68.8,30.07,NW,320,0.0,0.0,92,0.00,,---,0.00,VWS V14.01,2013-08-07 02:01:00,
2013-08-06 22:06:00,71.2,68.8,30.07,NW,320,0.0,0.0,92,0.00,,---,0.00,VWS V14.01,2013-08-07 02:06:00,
2013-08-06 22:11:00,71.2,68.8,30.07,NW,320,0.0,0.0,92,0.00,,---,0.00,VWS V14.01,2013-08-07 02:11:00,
2013-08-06 22:16:00,71.1,68.7,30.07,NW,320,0.0,0.0,92,0.00,,---,0.00,VWS V14.01,2013-08-07 02:16:00,
2013-08-06 22:21:00,71.1,68.7,30.07,NW,320,0.0,0.0,92,0.00,,---,0.00,VWS V14.01,2013-08-07 02:21:00,
2013-08-06 22:26:00,71.1,68.7,30.08,NW,320,0.0,0.0,92,0.00,,---,0.00,VWS V14.01,2013-08-07 02:26:00,
2013-08-06 22:31:00,71.1,68.7,30.08,NW,320,0.0,0.0,92,0.00,,---,0.00,VWS V14.01,2013-08-07 02:31:00,
2013-08-06 22:36:00,71.0,68.6,30.08,NW,320,0.0,0.0,92,0.00,,---,0.00,VWS V14.01,2013-08-07 02:36:00,
2013-08-06 22:41:00,71.0,68.6,30.08,NW,320,0.0,0.0,92,0.00,,---,0.00,VWS V14.01,2013-08-07 02:41:00,
2013-08-06 22:46:00,71.0,68.6,30.08,NW,320,0.0,0.0,92,0.00,,---,0.00,VWS V14.01,2013-08-07 02:46:00,
2013-08-06 22:51:00,71.1,69.0,30.08,NW,320,0.0,0.0,93,0.00,,---,0.00,VWS V14.01,2013-08-07 02:51:00,
2013-08-06 22:56:00,71.1,69.0,30.08,South,188,3.0,3.0,93,0.00,,---,0.00,VWS V14.01,2013-08-07 02:56:00,
2013-08-06 23:01:00,71.2,68.8,30.08,SSW,198,0.0,2.0,92,0.00,,---,0.00,VWS V14.01,2013-08-07 03:01:00,
2013-08-06 23:06:00,71.5,69.1,30.08,SE,138,0.0,3.0,92,0.00,,---,0.00,VWS V14.01,2013-08-07 03:06:00,
2013-08-06 23:12:00,71.7,68.9,30.08,SSE,165,0.0,4.0,91,0.00,,---,0.00,VWS V14.01,2013-08-07 03:12:00,
2013-08-06 23:16:00,71.8,69.0,30.08,SSE,159,0.0,1.0,91,0.00,,---,0.00,VWS V14.01,2013-08-07 03:16:00,
2013-08-06 23:21:00,71.9,69.1,30.08,South,169,0.0,2.0,91,0.00,,---,0.00,VWS V14.01,2013-08-07 03:21:00,
2013-08-06 23:26:00,71.9,69.1,30.08,South,176,3.0,3.0,91,0.00,,---,0.00,VWS V14.01,2013-08-07 03:26:00,
2013-08-06 23:31:00,71.9,69.1,30.08,SE,144,0.0,2.0,91,0.00,,---,0.00,VWS V14.01,2013-08-07 03:31:00,
2013-08-06 23:36:00,71.9,69.1,30.08,SSE,167,0.0,2.0,91,0.00,,---,0.00,VWS V14.01,2013-08-07 03:36:00,
2013-08-06 23:41:00,71.9,69.1,30.09,SSW,193,0.0,2.0,91,0.00,,---,0.00,VWS V14.01,2013-08-07 03:41:00,
2013-08-06 23:46:00,71.8,69.0,30.08,South,185,1.0,3.0,91,0.00,,---,0.00,VWS V14.01,2013-08-07 03:46:00,
2013-08-06 23:51:00,71.7,68.9,30.08,SE,135,0.0,3.0,91,0.00,,---,0.00,VWS V14.01,2013-08-07 03:51:00,
2013-08-06 23:56:00,71.7,68.9,30.08,South,184,0.0,3.0,91,0.00,,---,0.00,VWS V14.01,2013-08-07 03:56:00,